EW9119 Weather Reports


Display with metric or nautical units.
time (UTC)temp
F
wind
direction
speed
MPH
gust
MPH
rain 1hr
in
rain 24hr
in
rain mn
in
humidity
%
barometer
mb
20260505030047 61 298 0.0 0.0 0.00 0.00 0.00 54 1012.4
20260505024540 61 298 0.0 0.0 0.00 0.00 0.00 57 1012.4
20260505023035 62 298 0.0 0.0 0.00 0.00 0.00 56 1012.4
20260505021532 62 298 0.0 0.0 0.00 0.00 0.00 56 1012.3
20260505020028 63 298 0.0 0.0 0.00 0.00 0.00 56 1012.3
20260505014524 63 298 0.0 0.0 0.00 0.00 0.00 53 1012.3
20260505013022 64 298 0.0 0.0 0.00 0.00 0.00 54 1012.0
20260505011521 65 298 0.0 0.0 0.00 0.00 0.00 53 1011.8
20260505010016 66 298 0.0 0.0 0.00 0.00 0.00 53 1011.7
20260505004512 67 298 0.0 0.0 0.00 0.00 0.00 51 1011.6
20260505003006 68 298 0.0 0.0 0.00 0.00 0.00 49 1011.6
20260505001502 69 298 0.0 0.0 0.00 0.00 0.00 46 1011.4
20260505000112 70 240 0.0 0.0 0.00 0.00 0.00 45 1011.3
20260504234559 71 175 0.0 0.0 0.00 0.00 0.00 45 1011.2
20260504233056 72 78 0.0 0.0 0.00 0.00 0.00 43 1011.0
20260504231555 72 67 0.0 0.0 0.00 0.00 0.00 44 1011.0
20260504230056 73 9 0.0 0.0 0.00 0.00 0.00 41 1011.0
20260504224552 73 117 0.0 0.0 0.00 0.00 0.00 40 1011.0
20260504223047 74 81 0.0 1.0 0.00 0.00 0.00 42 1011.1
20260504221544 74 186 0.0 1.0 0.00 0.00 0.00 41 1011.1
20260504220046 75 36 0.0 0.0 0.00 0.00 0.00 40 1011.1
20260504214544 75 346 0.0 0.0 0.00 0.00 0.00 39 1011.2
20260504213030 75 355 0.0 0.0 0.00 0.00 0.00 39 1011.2
20260504211526 76 308 0.0 0.0 0.00 0.00 0.00 39 1011.1
20260504210024 76 40 0.0 0.0 0.00 0.00 0.00 42 1011.2
20260504204517 76 329 0.0 0.0 0.00 0.00 0.00 40 1011.2
20260504203014 75 311 0.0 2.0 0.00 0.00 0.00 40 1011.4
20260504201508 75 74 0.0 0.0 0.00 0.00 0.00 40 1011.5
20260504200004 75 316 0.0 0.0 0.00 0.00 0.00 41 1011.7
20260504194559 75 327 0.0 1.0 0.00 0.00 0.00 42 1012.0
20260504193055 75 323 0.0 0.0 0.00 0.00 0.00 40 1012.1
20260504191556 75 13 0.0 0.0 0.00 0.00 0.00 43 1012.4
20260504190054 75 305 0.0 0.0 0.00 0.00 0.00 42 1012.7
20260504184553 74 320 0.0 0.0 0.00 0.00 0.00 41 1012.8
20260504183044 75 297 0.0 1.0 0.00 0.00 0.00 39 1013.1
20260504181537 75 287 0.0 2.0 0.00 0.00 0.00 38 1013.2
20260504180029 76 213 0.0 0.0 0.00 0.00 0.00 42 1013.2
20260504174524 76 166 0.0 1.0 0.00 0.00 0.00 41 1013.3
20260504173018 75 325 0.0 0.0 0.00 0.00 0.00 41 1013.4
20260504171514 73 15 0.0 0.0 0.00 0.00 0.00 42 1013.7
20260504081545 41 227 0.0 0.0 0.00 0.00 0.00 29 1015.3
20260504050017 45 227 0.0 0.0 0.00 0.00 0.00 58 1015.6
20260504044521 46 227 0.0 0.0 0.00 0.00 0.00 57 1015.6
20260504043013 46 227 0.0 0.0 0.00 0.00 0.00 60 1015.4
20260504041510 46 227 0.0 0.0 0.00 0.00 0.00 61 1015.1
20260504040008 47 227 0.0 0.0 0.00 0.00 0.00 61 1015.2
20260504034504 47 227 0.0 0.0 0.00 0.00 0.00 60 1015.3
20260504033128 47 227 0.0 0.0 0.00 0.00 0.00 61 1015.3
20260504031558 47 227 0.0 0.0 0.00 0.00 0.00 63 1015.3